Location: Contre
(49.7477°N, 2.0963°E)
Time: 20:31:47
(UTC+00:00)

Meteor 2-12 Rocket - Pass Details

Date: 04 August 2024
Orbit: 936 x 957 km, 82.5° (Epoch: 07 September)

Event Time Altitude Azimuth Distance (km) Brightness Sun altitude
Rises 02:24:03 0° 343° (NNW) 3,609 8.0 -15.7°
Reaches altitude 10° 02:26:45 10° 335° (NNW) 2,662 7.2 -15.5°
Maximum altitude 02:32:06 34° 273° (W) 1,502 5.2 -14.9°
Enters shadow 02:35:16 21° 225° (SW) 1,982 5.5 -14.6°
